Houma, LA

2:07 PM CDT on September 21, 2017 (GMT -0500)
Houma-terrebonne

Weather History for KHUM - May, 2014

Change the Weather History Date:

Monday, May 26, 2014

  Actual Average Record
Temperature  
Mean Temperature 76 °F -  
Max Temperature 87 °F 85 °F 92 °F (1964)
Min Temperature 65 °F 67 °F 53 °F (1979)
Cooling Degree Days 11    
Growing Degree Days 26 (Base 50)    
Moisture  
Dew Point 66 °F    
Average Humidity 77    
Maximum Humidity 94    
Minimum Humidity 40    
Precipitation  
Precipitation 0.00 in - - ()
Sea Level Pressure  
Sea Level Pressure 30.09 in    
Wind  
Wind Speed 2 mph (SSE)    
Max Wind Speed 12 mph    
Max Gust Speed -    
Visibility 8 miles    
Events      
Averages and records for this station are not official NWS values.
T = Trace of Precipitation, MM = Missing Value Source: NWS Daily Summary

Daily Weather History Graph

Daily Weather History Graph

Search for Another Location

Airport or City:

Trip Planner

Search our weather history database for the weather conditions in past years. The results will help you decide how hot, cold, wet, or windy it might be!

Date:

Astronomy

May. 26, 2014 Rise Set
Actual Time 6:04 AM CDT 7:54 PM CDT
Civil Twilight 5:38 AM CDT 8:21 PM CDT
Nautical Twilight 5:06 AM CDT 8:53 PM CDT
Astronomical Twilight 4:32 AM CDT 9:27 PM CDT
Moon 4:35 AM CDT (5/26) 6:06 PM CDT (5/26)
Length of Visible Light 14h 43m
Length of Day
13h 50m
Waning Crescent, 5% of the Moon is Illuminated
May 26
Waning Crescent
May 28
New
Jun 5
First Quarter
Jun 12
Full
Jun 19
Last Quarter

Hourly Weather History & Observations

Time (CDT) Temp. Heat Index Dew Point Humidity Pressure Visibility Wind Dir Wind Speed Gust Speed Precip Events Conditions
12:15 AM 70.9 °F - 64.6 °F 80% 30.08 in 10.0 mi Calm Calm - N/A   Clear
12:35 AM 70.5 °F - 64.9 °F 82% 30.08 in 10.0 mi Calm Calm - N/A   Clear
12:55 AM 70.0 °F - 64.9 °F 84% 30.09 in 10.0 mi Calm Calm - N/A   Clear
1:15 AM 69.1 °F - 65.3 °F 88% 30.08 in 10.0 mi Calm Calm - N/A   Clear
1:35 AM 69.1 °F - 66.4 °F 91% 30.07 in 10.0 mi Calm Calm - N/A   Clear
1:55 AM 69.1 °F - 66.0 °F 90% 30.07 in 10.0 mi Calm Calm - N/A   Clear
2:15 AM 68.2 °F - 65.5 °F 91% 30.08 in 10.0 mi Calm Calm - N/A   Clear
2:35 AM 68.0 °F - 65.3 °F 91% 30.08 in 10.0 mi Calm Calm - N/A   Clear
2:55 AM 68.0 °F - 65.3 °F 91% 30.08 in 10.0 mi Calm Calm - N/A   Clear
3:15 AM 67.8 °F - 65.1 °F 91% 30.08 in 7.0 mi Calm Calm - N/A   Clear
3:35 AM 67.1 °F - 64.4 °F 91% 30.08 in 10.0 mi Calm Calm - N/A   Clear
3:55 AM 66.9 °F - 64.2 °F 91% 30.08 in 10.0 mi Calm Calm - N/A   Clear
4:15 AM 66.2 °F - 63.7 °F 92% 30.08 in 10.0 mi Calm Calm - N/A   Clear
4:35 AM 66.6 °F - 63.9 °F 91% 30.08 in 2.0 mi Calm Calm - N/A   Clear
4:55 AM 66.4 °F - 64.0 °F 92% 30.09 in 4.0 mi Calm Calm - N/A   Clear
5:15 AM 66.4 °F - 64.0 °F 92% 30.08 in 5.0 mi Calm Calm - N/A   Clear
5:35 AM 66.4 °F - 64.0 °F 92% 30.09 in 5.0 mi Calm Calm - N/A   Clear
5:55 AM 65.3 °F - 62.8 °F 92% 30.10 in 3.0 mi Calm Calm - N/A   Clear
6:50 AM 66.2 °F - 64.4 °F 94% 30.12 in 6.0 mi Calm Calm - N/A   Scattered Clouds
7:50 AM 75.2 °F - 68.0 °F 78% 30.13 in 7.0 mi Calm Calm - N/A   Scattered Clouds
8:50 AM 80.6 °F 83.2 °F 68.0 °F 65% 30.15 in 7.0 mi SSE 4.6 mph - N/A   Scattered Clouds
9:50 AM 84.2 °F 86.6 °F 66.2 °F 55% 30.15 in 7.0 mi SSE 6.9 mph - N/A   Scattered Clouds
12:50 PM 87.8 °F 87.6 °F 60.8 °F 40% 30.11 in 7.0 mi SSE 11.5 mph - N/A   Scattered Clouds
2:50 PM 87.8 °F 89.4 °F 64.4 °F 46% 30.09 in 7.0 mi SSE 11.5 mph - N/A   Scattered Clouds
3:50 PM 87.8 °F 89.4 °F 64.4 °F 46% 30.09 in 7.0 mi South 11.5 mph - N/A   Scattered Clouds
4:50 PM 84.2 °F 84.4 °F 60.8 °F 45% 30.07 in 7.0 mi South 11.5 mph - N/A   Partly Cloudy
5:50 PM 82.4 °F 83.9 °F 64.4 °F 54% 30.07 in 7.0 mi SSE 6.9 mph - N/A   Partly Cloudy
7:15 PM 80.6 °F 82.4 °F 65.1 °F 59% 30.07 in 10.0 mi SSE 6.9 mph - N/A   Clear
7:35 PM 79.5 °F - 66.0 °F 63% 30.07 in 10.0 mi SSE 5.8 mph - N/A   Clear
7:55 PM 77.4 °F - 66.2 °F 68% 30.07 in 10.0 mi SSE 3.5 mph - N/A   Clear
8:15 PM 77.5 °F - 66.4 °F 68% 30.08 in 10.0 mi Calm Calm - N/A   Scattered Clouds
8:35 PM 76.6 °F - 66.9 °F 72% 30.09 in 10.0 mi Calm Calm - N/A   Scattered Clouds
8:55 PM 76.5 °F - 67.1 °F 73% 30.08 in 10.0 mi Calm Calm - N/A   Clear
9:15 PM 76.3 °F - 67.3 °F 74% 30.09 in 10.0 mi Calm Calm - N/A   Scattered Clouds
9:35 PM 76.1 °F - 67.5 °F 74% 30.10 in 10.0 mi Calm Calm - N/A   Mostly Cloudy
9:55 PM 76.5 °F - 68.0 °F 75% 30.10 in 10.0 mi Calm Calm - N/A   Overcast
10:15 PM 76.3 °F - 68.5 °F 77% 30.10 in 10.0 mi SSE 3.5 mph - N/A   Overcast
10:35 PM 77.5 °F - 68.5 °F 74% 30.10 in 10.0 mi SE 5.8 mph - N/A   Scattered Clouds
10:55 PM 77.2 °F - 68.2 °F 74% 30.11 in 10.0 mi SE 5.8 mph - N/A   Clear
11:15 PM 76.3 °F - 68.4 °F 76% 30.11 in 10.0 mi SSE 4.6 mph - N/A   Clear
11:35 PM 76.1 °F - 68.5 °F 77% 30.11 in 10.0 mi SE 5.8 mph - N/A   Scattered Clouds
11:55 PM 76.5 °F - 68.9 °F 77% 30.10 in 10.0 mi SE 5.8 mph - N/A   Scattered Clouds